Temperature
6 6 5 6 5 5 6 6 6 5 5 5 5 5 5 5 5 5 5 5 5 5 4 4 4 4 4 4 4 4 3 3 3 3 3 3 3 3 3 3 3 3 3
5 5 5 5 5 5 5 5 5 5 5 5 5 5 5 5 4 4 4 4 4 4 4 4 4 4 4 4 3 3 3 3 3 2 2 2 2 2 2 2 3 3 2
5 5 5 5 4 4 5 5 4 5 5 4 4 4 4 4 4 4 4 3 3 3 3 3 3 3 3 3 3 3 3 2 2 2 2 2 2 2 2 2 2 2 2
4 4 4 4 4 4 4 4 4 4 4 4 4 4 4 4 3 3 3 3 3 3 3 3 3 3 3 3 2 2 2 2 2 1 1 1 1 1 1 1 1 1 1
4 4 4 4 4 3 4 4 4 4 4 4 3 3 3 3 3 3 3 2 3 2 2 2 2 2 2 2 2 2 2 1 1 1 1 1 1 1 1 1 1 1 1
3 3 3 3 3 3 3 3 3 3 3 3 3 3 3 3 2 2 2 2 2 2 2 2 2 2 2 2 1 1 1 1 1 0 0 0 0 0 -0 -0 -0 -0 -0
3 3 3 3 3 3 3 3 3 3 3 3 2 2 2 2 2 2 2 2 2 2 2 2 1 1 1 1 1 1 1 0 0 0 -0 -0 -0 -0 -1 -1 -1 -1 -1
2 2 2 2 2 2 2 2 2 2 2 2 2 2 2 1 1 1 1 1 1 1 1 1 1 1 1 0 0 0 0 0 -0 -0 -0 -0 -1 -1 -1 -1 -1 -1 -1
2 2 2 2 2 2 2 2 2 2 2 1 1 1 1 1 1 1 1 1 1 1 1 0 0 0 0 -0 -0 -0 -0 -0 -0 -1 -1 -1 -1 -1 -1 -1 -2 -2 -2
2 2 2 2 1 1 1 1 1 1 1 1 1 1 1 1 0 0 0 0 0 0 0 -0 -0 -0 -0 -0 -0 -1 -1 -1 -1 -1 -1 -1 -1 -1 -1 -2 -2 -2 -2
1 1 1 1 1 1 1 1 0 0 0 0 0 0 0 0 0 -0 -0 -0 -0 -0 -0 -0 -0 -1 -1 -1 -1 -1 -1 -1 -1 -1 -1 -1 -1 -1 -2 -2 -2 -3 -3
0 0 0 0 0 0 0 0 -0 -0 -0 -0 -0 -0 -0 -0 -1 -1 -1 -1 -1 -1 -1 -1 -1 -1 -1 -1 -1 -1 -1 -2 -2 -2 -2 -2 -2 -2 -2 -2 -2 -3 -3
0 -0 -0 -0 -0 -0 -0 -1 -1 -1 -1 -1 -1 -1 -1 -1 -1 -1 -1 -1 -1 -1 -1 -1 -1 -1 -2 -2 -2 -2 -2 -2 -2 -2 -2 -2 -2 -3 -3 -3 -3 -3 -3
-0 -0 -0 -1 -1 -1 -1 -1 -1 -1 -1 -1 -1 -1 -1 -1 -1 -1 -1 -2 -2 -2 -2 -2 -2 -2 -2 -2 -2 -2 -2 -2 -2 -3 -3 -3 -3 -3 -3 -3 -3 -3 -4
-1 -1 -1 -1 -1 -1 -1 -1 -2 -2 -2 -2 -1 -1 -1 -1 -1 -2 -2 -2 -2 -2 -2 -2 -2 -2 -2 -2 -2 -2 -3 -3 -3 -3 -3 -3 -3 -3 -3 -4 -4 -4 -4
-1 -1 -2 -2 -2 -2 -2 -2 -2 -2 -2 -2 -2 -2 -2 -2 -2 -2 -2 -2 -2 -2 -3 -3 -2 -2 -3 -3 -3 -3 -3 -3 -3 -3 -3 -4 -4 -4 -4 -4 -4 -4 -4
-2 -2 -2 -2 -2 -2 -2 -2 -2 -2 -2 -2 -2 -2 -2 -2 -2 -2 -2 -3 -3 -3 -3 -3 -3 -3 -3 -3 -3 -3 -3 -4 -4 -4 -4 -4 -4 -4 -4 -4 -5 -5 -5
-2 -2 -2 -2 -2 -2 -3 -3 -3 -3 -3 -2 -2 -3 -3 -3 -3 -3 -3 -3 -3 -3 -3 -3 -3 -3 -4 -4 -4 -4 -4 -4 -4 -5 -5 -5 -5 -5 -5 -5 -5 -5 -5
-3 -3 -3 -3 -3 -3 -3 -3 -3 -3 -3 -3 -3 -3 -3 -3 -3 -3 -3 -3 -3 -3 -3 -3 -4 -4 -4 -4 -4 -4 -5 -5 -5 -5 -5 -5 -5 -5 -5 -5 -5 -5 -6
-3 -3 -3 -3 -3 -3 -3 -3 -3 -4 -4 -3 -3 -3 -3 -4 -4 -4 -4 -4 -4 -4 -4 -4 -4 -4 -4 -5 -5 -5 -5 -5 -5 -5 -5 -5 -5 -5 -6 -6 -6 -6 -6
-3 -4 -4 -4 -4 -4 -4 -4 -4 -4 -4 -4 -4 -4 -4 -4 -4 -4 -4 -4 -4 -4 -4 -4 -4 -5 -5 -5 -5 -5 -5 -5 -5 -5 -5 -6 -6 -6 -6 -6 -6 -6 -6
-4 -4 -4 -4 -4 -4 -4 -4 -4 -4 -4 -4 -4 -4 -4 -4 -4 -4 -4 -4 -4 -5 -5 -5 -5 -5 -5 -5 -5 -5 -6 -6 -6 -6 -6 -6 -6 -6 -6 -6 -6 -6 -6
-4 -4 -4 -4 -4 -4 -5 -5 -4 -4 -4 -4 -5 -5 -5 -5 -5 -5 -5 -5 -5 -5 -5 -5 -5 -5 -5 -5 -5 -6 -6 -6 -6 -6 -6 -6 -6 -6 -7 -6 -7 -7 -7
-5 -5 -5 -5 -5 -5 -5 -5 -5 -5 -5 -5 -5 -5 -5 -5 -5 -5 -5 -5 -5 -5 -5 -5 -5 -5 -5 -5 -5 -6 -6 -6 -6 -6 -6 -6 -6 -7 -7 -7 -7 -7 -7
-5 -5 -5 -5 -5 -5 -5 -5 -5 -5 -5 -5 -5 -5 -5 -5 -5 -5 -5 -5 -5 -5 -5 -5 -5 -5 -5 -6 -6 -6 -6 -6 -6 -6 -6 -7 -7 -7 -7 -7 -7 -7 -7
-6 -6 -6 -6 -6 -6 -6 -6 -6 -5 -5 -6 -6 -6 -6 -6 -6 -6 -6 -6 -6 -6 -6 -5 -6 -6 -6 -6 -6 -6 -6 -6 -6 -6 -7 -7 -7 -7 -7 -7 -7 -7 -7
Wind_Speed
3 2 2 2 2 2 2 2 2 2 2 2 2 2 2 2 2 2 2 2 2 2 2 2 2 2 2 2 2 2 3 3 5 5 3 2 3 4 5 6 7 8 8
3 2 2 2 3 2 2 2 2 2 2 2 2 2 2 2 2 2 2 2 3 3 2 2 3 2 3 3 3 3 3 3 4 6 5 3 4 4 4 4 5 7 7
3 3 3 3 3 2 2 2 2 2 2 1 2 2 2 2 2 2 2 2 2 3 3 3 4 3 3 3 3 3 3 3 3 4 5 4 4 3 4 4 5 5 7
3 3 3 3 3 2 2 2 1 2 2 2 1 1 1 1 1 2 2 2 2 2 2 3 4 4 5 4 4 4 4 3 3 4 5 4 4 4 3 4 5 4 5
3 3 3 3 3 2 2 2 1 1 1 2 1 1 1 2 2 2 2 2 2 2 2 3 4 4 5 5 4 4 4 4 4 4 5 4 4 3 4 3 5 5 5
3 3 3 3 2 2 2 1 1 1 1 1 2 2 2 2 3 4 3 2 3 3 3 4 4 4 5 6 8 7 6 6 5 5 5 6 6 5 4 4 4 5 5
2 2 2 2 2 2 1 1 1 1 1 1 1 1 2 2 4 4 4 3 3 4 4 4 4 4 5 4 6 8 8 9 9 6 6 7 7 6 5 5 5 5 6
2 2 2 2 2 1 1 1 1 1 1 1 1 1 1 3 4 4 4 2 3 4 4 4 4 4 4 5 4 4 5 6 7 5 6 6 6 5 5 6 6 5 5
2 2 2 2 2 1 2 2 1 1 1 1 1 2 2 2 4 4 3 2 2 3 4 4 4 4 6 6 4 4 5 5 7 9 10 10 10 9 6 3 3 3 5
1 1 1 1 1 2 2 2 1 2 2 1 2 2 2 3 4 4 4 2 3 3 3 3 5 6 7 6 4 4 5 5 4 5 6 7 7 7 8 5 4 4 4
1 1 0 0 1 1 1 1 1 2 1 2 2 2 2 3 4 5 4 2 3 3 3 3 3 6 7 7 6 4 7 6 4 3 4 4 4 3 4 5 4 4 5
1 0 1 1 1 1 1 1 1 2 2 2 2 2 2 2 3 4 5 5 3 3 3 3 3 6 7 7 6 6 8 7 3 3 3 4 4 4 4 4 5 6 6
0 0 1 1 1 1 1 2 2 2 2 2 2 2 2 2 3 5 5 5 5 3 3 4 5 6 6 5 6 8 6 3 2 3 4 4 4 4 3 3 3 4 5
1 1 1 1 1 1 1 1 2 2 3 3 3 3 3 2 2 2 2 2 3 3 3 4 6 6 5 5 5 4 3 3 3 4 4 4 3 3 3 2 2 2 3
1 1 1 1 2 2 2 2 3 3 4 4 4 4 4 4 5 5 3 3 2 3 3 2 2 2 2 2 2 3 2 3 3 3 3 4 3 3 3 2 2 2 4
1 1 1 2 2 2 2 3 3 4 5 5 5 5 4 5 6 6 6 6 6 5 3 2 3 3 3 3 3 3 3 3 3 3 3 4 4 4 3 3 2 3 5
2 2 2 2 2 2 2 2 3 4 4 5 5 5 5 5 5 5 5 5 5 4 2 3 3 3 3 3 3 3 4 3 3 4 4 4 4 4 3 4 4 4 5
2 2 2 2 2 2 2 2 2 3 3 3 4 5 5 5 5 5 5 4 3 3 2 3 4 3 3 3 3 4 4 3 3 4 4 4 4 4 4 4 4 5 5
2 2 2 2 2 2 2 2 2 3 3 3 3 3 4 4 5 5 4 2 3 3 3 3 3 3 3 3 3 4 4 4 4 4 4 4 4 4 5 5 5 6 6
2 3 3 2 2 2 2 2 2 2 3 3 3 3 2 2 2 3 3 3 3 4 4 4 4 4 3 3 3 4 4 4 4 4 4 4 4 4 5 5 5 5 5
2 2 3 2 2 2 2 3 3 3 3 4 4 4 5 3 3 4 4 3 3 4 4 4 4 4 4 3 3 4 5 5 4 4 4 4 4 5 5 4 5 5 4
2 2 2 3 3 3 3 3 3 3 4 4 4 4 6 3 3 4 4 4 3 3 3 3 4 3 3 3 4 4 5 5 5 4 4 4 4 5 4 4 4 4 4
2 3 3 3 3 4 4 3 3 3 4 4 4 4 3 3 4 4 4 4 3 3 3 3 4 4 3 4 5 4 5 5 5 5 4 4 4 4 4 4 4 4 4
2 3 3 3 3 3 3 4 4 4 4 4 4 4 4 4 4 4 4 4 3 3 3 3 4 5 6 5 5 6 7 7 6 5 6 5 5 5 4 4 4 4 4
3 3 3 3 4 4 4 4 4 4 4 4 4 4 4 4 4 4 4 4 4 4 4 4 4 5 6 7 7 7 9 9 8 7 6 5 5 5 4 4 4 4 4
3 4 4 4 4 4 4 4 4 4 4 4 4 4 4 4 4 4 4 3 3 4 4 4 5 6 7 7 8 9 10 9 9 7 6 4 4 4 4 4 4 4 3
Wind_Direction
133 126 124 131 126 126 128 130 128 124 139 150 160 158 162 171 176 178 188 196 203 212 215 215 239 248 250 246 243 242 248 239 256 276 274 270 266 268 282 275 272 272 273
140 135 133 126 117 116 117 121 124 137 145 147 154 161 173 176 184 186 201 214 211 213 216 224 246 255 252 248 242 242 246 242 244 268 281 282 271 268 273 278 288 281 277
136 135 131 130 126 127 121 120 133 150 147 155 158 172 188 189 188 201 213 224 225 219 215 226 237 235 244 245 244 247 252 257 247 253 273 280 277 281 286 289 290 288 287
138 142 145 142 139 140 138 138 140 148 155 162 165 186 201 207 210 211 220 230 238 240 233 235 238 235 235 234 244 243 247 249 250 252 266 276 276 277 278 281 289 286 285
144 145 147 139 132 132 132 131 129 146 165 158 162 187 205 218 216 206 216 230 236 243 249 250 250 249 249 249 251 243 238 244 251 255 262 273 273 275 270 271 281 292 286
140 142 137 135 133 131 134 131 136 157 171 162 179 194 216 240 232 243 253 242 241 237 247 258 260 259 261 269 266 264 255 247 247 250 258 259 265 267 273 274 278 288 289
127 130 133 133 136 146 151 150 165 176 168 178 187 192 219 229 237 247 254 256 243 239 239 248 262 261 266 254 264 273 271 268 262 253 251 256 261 258 258 267 262 265 269
128 129 132 137 147 158 167 188 202 189 185 205 213 215 232 242 247 253 259 261 254 246 239 238 246 254 255 258 253 258 257 263 267 265 254 258 259 256 245 254 263 274 279
133 140 146 143 154 185 207 215 212 201 210 222 215 219 227 246 253 256 270 253 254 254 255 249 251 251 262 272 265 257 265 269 271 265 264 268 273 275 276 269 267 276 284
153 134 123 136 180 225 234 230 217 200 211 222 231 225 222 234 250 258 269 248 248 257 262 259 258 260 267 267 255 246 260 272 271 276 273 275 276 276 276 257 239 256 278
116 114 141 197 221 230 249 253 210 200 207 226 234 240 231 237 244 253 259 256 237 245 252 258 259 268 277 276 270 252 260 274 268 261 267 271 275 274 273 259 241 237 254
91 150 211 237 250 245 230 254 229 203 211 228 229 242 238 232 240 250 255 264 273 254 254 255 260 277 287 288 281 270 278 285 269 269 271 271 271 269 268 261 253 250 251
181 250 250 252 240 222 218 226 225 214 222 229 226 239 251 242 240 252 257 264 279 284 269 274 286 290 294 291 281 283 288 277 259 264 269 270 264 261 268 273 269 270 272
266 286 274 255 266 263 247 228 227 228 232 236 238 243 252 251 245 243 248 262 275 281 282 278 283 285 282 277 285 285 270 257 258 254 265 271 274 266 265 265 274 280 286
280 277 274 260 252 266 269 253 245 240 236 241 242 238 240 249 251 261 273 274 266 264 285 285 279 279 274 275 279 276 268 270 270 263 268 275 275 272 273 270 267 270 271
288 286 282 272 267 262 274 297 290 272 275 267 262 260 265 263 264 266 272 278 278 273 279 265 269 271 268 269 275 278 271 266 264 265 269 271 269 267 270 275 272 266 270
278 289 291 282 270 264 265 267 291 301 286 276 268 267 268 265 264 268 274 280 276 270 266 257 262 265 267 267 268 270 274 269 266 263 265 266 264 266 267 268 267 271 273
278 279 283 280 277 271 264 262 263 273 287 292 281 272 273 268 266 268 273 286 279 270 257 262 265 264 264 264 267 273 277 278 272 270 267 266 263 266 271 270 266 268 276
282 278 273 275 274 272 271 270 269 267 269 280 292 288 283 281 275 270 268 255 253 261 262 264 266 266 268 266 266 269 272 272 271 269 267 265 263 265 270 270 270 274 274
287 283 286 280 277 278 279 274 272 270 269 272 274 278 285 289 272 263 259 254 254 260 259 261 264 262 263 264 267 270 273 273 272 270 269 265 259 260 265 268 270 272 271
294 293 291 292 279 271 265 263 264 265 266 268 271 271 274 274 266 264 262 260 256 258 258 259 260 259 257 258 262 267 271 275 273 270 269 266 262 263 263 266 269 268 269
279 282 281 277 276 272 270 263 263 266 268 272 278 278 276 277 267 267 267 267 263 258 254 255 260 257 253 255 260 265 270 275 277 273 268 267 268 267 265 266 267 267 268
271 273 277 278 276 275 278 272 267 267 270 272 274 276 271 266 266 269 270 270 268 263 252 250 260 263 254 256 257 257 263 266 269 268 271 271 271 268 265 262 259 262 264
266 265 268 271 272 268 268 270 268 268 270 272 271 271 271 270 270 271 271 274 272 264 255 253 256 261 262 265 268 265 264 265 263 260 255 259 264 263 260 260 260 259 259
279 273 271 271 271 271 271 272 271 270 272 274 274 276 275 273 272 271 270 270 269 267 263 260 262 264 263 264 271 273 275 274 270 264 253 249 255 256 255 257 256 258 258
280 276 275 272 270 269 270 271 272 272 272 275 276 274 273 270 269 267 266 266 270 271 269 265 265 267 272 274 276 279 284 282 276 268 262 249 248 251 250 250 247 249 250
Height
1465 1466 1467 1468 1470 1471 1472 1473 1474 1475 1476 1476 1477 1478 1479 1480 1482 1483 1483 1485 1485 1485 1486 1487 1488 1488 1488 1489 1489 1489 1489 1489 1487 1485 1486 1486 1486 1485 1484 1484 1483 1481 1480
1463 1464 1465 1466 1467 1469 1470 1471 1472 1473 1473 1474 1475 1476 1476 1477 1478 1479 1480 1481 1481 1482 1482 1483 1484 1484 1484 1484 1484 1484 1484 1484 1483 1481 1480 1481 1480 1480 1479 1478 1477 1476 1475
1461 1462 1462 1464 1465 1466 1467 1469 1470 1470 1471 1472 1472 1473 1473 1474 1475 1476 1477 1478 1478 1478 1479 1479 1479 1480 1480 1480 1480 1479 1479 1479 1478 1477 1476 1476 1475 1475 1474 1473 1472 1471 1470
1459 1459 1460 1462 1463 1464 1465 1466 1467 1468 1468 1469 1470 1470 1471 1471 1472 1473 1474 1474 1474 1474 1474 1475 1475 1475 1475 1475 1475 1474 1474 1474 1473 1472 1471 1471 1470 1470 1469 1467 1466 1465 1464
1456 1457 1458 1460 1461 1462 1463 1463 1464 1465 1466 1466 1467 1467 1468 1468 1469 1469 1470 1470 1470 1470 1470 1471 1471 1471 1471 1471 1470 1470 1469 1469 1468 1468 1467 1466 1465 1464 1463 1462 1461 1459 1458
1454 1455 1456 1457 1458 1459 1460 1461 1461 1462 1463 1463 1463 1464 1464 1465 1465 1466 1466 1466 1466 1466 1466 1466 1466 1467 1466 1466 1466 1465 1465 1464 1463 1463 1462 1461 1459 1459 1459 1458 1457 1455 1452
1452 1453 1454 1455 1456 1456 1457 1458 1458 1459 1460 1460 1460 1461 1461 1462 1462 1463 1463 1463 1462 1462 1462 1462 1462 1462 1462 1461 1460 1460 1459 1459 1459 1459 1457 1456 1455 1454 1454 1453 1452 1450 1448
1450 1451 1452 1453 1453 1454 1454 1455 1455 1456 1456 1457 1457 1457 1458 1458 1459 1459 1459 1459 1458 1458 1458 1458 1457 1457 1457 1456 1456 1455 1454 1454 1453 1453 1452 1451 1451 1450 1449 1449 1447 1445 1443
1448 1449 1449 1450 1451 1451 1451 1452 1452 1453 1453 1454 1454 1454 1454 1455 1455 1455 1455 1454 1454 1454 1454 1453 1453 1452 1452 1452 1451 1450 1449 1448 1448 1448 1447 1446 1446 1445 1444 1443 1441 1440 1437
1446 1446 1447 1447 1448 1448 1448 1449 1449 1450 1450 1451 1451 1451 1451 1451 1452 1451 1451 1450 1450 1450 1449 1449 1449 1448 1448 1447 1446 1445 1444 1443 1443 1442 1442 1441 1440 1439 1439 1438 1437 1435 1433
1444 1444 1445 1445 1445 1445 1445 1446 1446 1446 1447 1447 1447 1447 1448 1448 1448 1448 1447 1447 1446 1445 1445 1445 1444 1444 1443 1443 1442 1441 1439 1439 1438 1437 1436 1435 1435 1434 1433 1433 1432 1431 1430
1442 1442 1442 1442 1442 1442 1442 1443 1443 1443 1444 1444 1444 1444 1444 1444 1444 1444 1444 1444 1443 1442 1441 1441 1440 1439 1439 1438 1437 1436 1436 1435 1434 1433 1431 1430 1429 1429 1428 1428 1427 1426 1425
1439 1439 1439 1439 1439 1440 1440 1440 1440 1440 1441 1441 1441 1441 1440 1441 1441 1440 1440 1440 1439 1438 1438 1437 1436 1435 1435 1434 1433 1432 1432 1431 1429 1428 1427 1426 1426 1425 1424 1423 1422 1421 1420
1436 1436 1436 1436 1436 1437 1437 1437 1437 1437 1437 1437 1437 1437 1437 1436 1436 1436 1436 1435 1435 1434 1433 1433 1432 1431 1431 1430 1429 1428 1427 1426 1425 1424 1423 1422 1421 1420 1419 1418 1417 1416 1414
1434 1434 1434 1434 1433 1433 1434 1434 1434 1434 1435 1435 1434 1434 1433 1433 1433 1433 1432 1432 1431 1431 1430 1429 1428 1427 1426 1425 1425 1424 1423 1423 1421 1420 1419 1418 1417 1416 1415 1414 1413 1412 1410
1431 1431 1431 1431 1431 1430 1430 1430 1431 1431 1431 1431 1431 1431 1430 1430 1429 1429 1429 1428 1428 1427 1426 1425 1424 1423 1422 1421 1421 1420 1419 1418 1417 1416 1415 1414 1413 1412 1411 1410 1409 1407 1406
1429 1428 1428 1428 1428 1428 1428 1427 1427 1427 1427 1427 1427 1427 1427 1426 1426 1425 1425 1424 1424 1423 1422 1421 1420 1419 1418 1418 1417 1416 1415 1414 1413 1412 1411 1410 1409 1408 1407 1406 1405 1403 1402
1426 1426 1425 1425 1425 1425 1425 1424 1424 1424 1423 1423 1423 1423 1423 1422 1422 1422 1421 1420 1419 1419 1418 1417 1416 1415 1415 1414 1413 1412 1410 1409 1408 1408 1407 1406 1405 1404 1402 1401 1400 1399 1398
1423 1423 1423 1422 1422 1422 1421 1421 1421 1421 1420 1419 1419 1419 1419 1418 1418 1418 1417 1416 1415 1414 1414 1413 1412 1412 1411 1410 1409 1408 1406 1405 1404 1403 1402 1401 1400 1399 1398 1397 1396 1395 1394
1421 1420 1420 1419 1419 1419 1418 1418 1418 1417 1417 1416 1415 1415 1415 1414 1413 1413 1413 1412 1411 1411 1410 1409 1408 1408 1407 1406 1405 1404 1402 1401 1400 1399 1398 1397 1396 1395 1394 1393 1392 1390 1389
1417 1417 1417 1416 1416 1415 1415 1415 1414 1414 1413 1412 1412 1412 1411 1411 1410 1409 1408 1408 1407 1407 1406 1405 1404 1404 1403 1402 1401 1399 1398 1397 1396 1395 1394 1393 1392 1391 1390 1389 1388 1387 1386
1414 1414 1413 1413 1412 1412 1412 1411 1411 1410 1410 1409 1408 1408 1407 1407 1406 1405 1404 1404 1403 1403 1402 1401 1400 1399 1398 1398 1397 1395 1394 1393 1391 1391 1390 1389 1388 1387 1386 1385 1384 1383 1382
1411 1411 1410 1410 1409 1409 1408 1408 1407 1407 1406 1405 1404 1404 1403 1402 1401 1401 1400 1399 1399 1398 1398 1397 1396 1395 1394 1393 1392 1391 1390 1388 1387 1387 1385 1384 1384 1383 1382 1381 1380 1380 1379
1408 1407 1407 1406 1406 1405 1404 1404 1403 1403 1402 1401 1401 1400 1399 1398 1397 1396 1396 1395 1395 1394 1393 1392 1392 1391 1390 1389 1388 1386 1385 1384 1383 1382 1381 1380 1379 1379 1378 1378 1377 1376 1376
1404 1404 1403 1402 1402 1401 1401 1400 1400 1399 1398 1398 1397 1396 1395 1394 1393 1392 1392 1391 1390 1390 1389 1388 1387 1386 1385 1384 1383 1382 1380 1379 1378 1377 1377 1376 1375 1375 1374 1374 1374 1373 1373
1400 1400 1399 1399 1398 1398 1397 1396 1396 1395 1394 1393 1392 1391 1391 1390 1389 1388 1387 1387 1386 1385 1384 1384 1383 1382 1380 1379 1378 1377 1375 1374 1373 1373 1372 1372 1371 1371 1371 1370 1370 1370 1370